Location: *
(44.9308°N, 123.0197°W)
Time: 03:19:55
(UTC+00:00)

IDEFIX/ARIANE 42P - Pass Details

Date: 09 April 2020
Orbit: 786 x 802 km, 98.3° (Epoch: 24 May)

Event Time Altitude Azimuth Distance (km) Brightness Sun altitude
Rises 12:30:23 0° 6° (N) 3,292 6.2 -12.0°
Reaches altitude 10° 12:32:51 10° 358° (N) 2,360 5.3 -11.6°
Maximum altitude 12:37:34 36° 293° (WNW) 1,236 3.2 -10.9°
Enters shadow 12:42:00 11° 229° (SW) 2,255 4.3 -10.1°
